Location: Ku?niki
(51.4449°N, 17.8974°E)
Time: 17:32:47
(UTC+00:00)

SL-16 R/B - Pass Details

Date: 18 September 2020
Orbit: 985 x 1007 km, 99.5° (Epoch: 22 October)

Event Time Altitude Azimuth Distance (km) Brightness Sun altitude
Exits shadow 22:27:14 20° 63° (ENE) 2,136 4.4 -37.1°
Maximum altitude 22:28:16 20° 50° (NE) 2,093 4.5 -37.1°
Drops below altitude 10° 22:32:35 10° 5° (N) 2,757 5.6 -37.1°
Sets 22:35:41 0° 350° (N) 3,709 6.5 -37.1°
